Change the Weather History Date:

Monday, September 12, 2011

  Actual Average Record
Temperature  
Mean Temperature 70 °F -  
Max Temperature 75 °F 75 °F 90 °F (1961)
Min Temperature 64 °F 55 °F 40 °F (1958)
Cooling Degree Days 4    
Growing Degree Days 20 (Base 50)    
Moisture  
Dew Point 65 °F    
Average Humidity 88    
Maximum Humidity 97    
Minimum Humidity 69    
Precipitation  
Precipitation 0.00 in - - ()
Sea Level Pressure  
Sea Level Pressure 29.99 in    
Wind  
Wind Speed 4 mph (SW)    
Max Wind Speed 12 mph    
Max Gust Speed -    
Visibility 9 miles    
Events      
Averages and records for this station are not official NWS values.
T = Trace of Precipitation, MM = Missing Value Source: NWS Daily Summary

Daily Weather History Graph

Daily Weather History Graph

Search for Another Location

Airport or City:

Trip Planner

Search our weather history database for the weather conditions in past years. The results will help you decide how hot, cold, wet, or windy it might be!

Date:

Astronomy

Sep. 12, 2011 Rise Set
Actual Time 6:25 AM EDT 7:03 PM EDT
Civil Twilight 5:57 AM EDT 7:30 PM EDT
Nautical Twilight 5:24 AM EDT 8:03 PM EDT
Astronomical Twilight 4:50 AM EDT 8:37 PM EDT
Moon 6:49 PM EDT (9/12) 6:39 AM EDT (9/12)
Length of Visible Light 13h 33m
Length of Day
12h 37m
Full, 100% of the Moon is Illuminated
Sep 12
Full
Sep 20
Last Quarter
Sep 27
New
Oct 3
First Quarter
Oct 11
Full

Hourly Weather History & Observations

Time (EDT) Temp. Dew Point Humidity Pressure Visibility Wind Dir Wind Speed Gust Speed Precip Events Conditions
12:51 AM 64.4 °F 60.8 °F 88% 30.03 in 10.0 mi North 3.5 mph - N/A   Overcast
12:56 AM 64.9 °F 61.0 °F 87% 30.03 in 10.0 mi Calm Calm - N/A   Overcast
1:56 AM 66.9 °F 64.0 °F 90% 30.03 in 10.0 mi SW 4.6 mph - N/A   Overcast
2:56 AM 66.0 °F 64.0 °F 93% 30.02 in 10.0 mi Calm Calm - N/A   Overcast
3:56 AM 66.2 °F 64.4 °F 94% 30.01 in 10.0 mi West 3.5 mph - N/A   Overcast
4:30 AM 66.2 °F 64.4 °F 94% 30.00 in 8.0 mi Calm Calm - N/A   Overcast
4:56 AM 66.0 °F 64.0 °F 93% 30.00 in 8.0 mi Calm Calm - N/A   Overcast
5:56 AM 64.9 °F 64.0 °F 97% 30.01 in 6.0 mi Calm Calm - 0.00 in   Overcast
6:56 AM 66.0 °F 64.9 °F 96% 30.00 in 5.0 mi Calm Calm - N/A   Overcast
7:37 AM 66.2 °F 64.4 °F 94% 30.01 in 6.0 mi Calm Calm - N/A   Overcast
7:56 AM 66.9 °F 64.9 °F 93% 30.01 in 6.0 mi Calm Calm - N/A   Overcast
8:30 AM 68.0 °F 66.2 °F 94% 30.01 in 6.0 mi Calm Calm - N/A   Overcast
8:56 AM 68.0 °F 66.0 °F 93% 30.01 in 6.0 mi South 5.8 mph - N/A   Mostly Cloudy
9:15 AM 69.8 °F 66.2 °F 88% 30.01 in 6.0 mi South 4.6 mph - N/A   Scattered Clouds
9:56 AM 69.1 °F 66.0 °F 90% 30.01 in 6.0 mi South 5.8 mph - N/A   Scattered Clouds
10:26 AM 69.8 °F 66.2 °F 88% 30.02 in 10.0 mi SSW 9.2 mph - N/A   Mostly Cloudy
10:47 AM 69.8 °F 66.2 °F 88% 30.02 in 10.0 mi SSW 8.1 mph - N/A   Scattered Clouds
10:56 AM 71.6 °F 66.2 °F 83% 30.02 in 10.0 mi SSW 6.9 mph - N/A   Scattered Clouds
11:56 AM 72.0 °F 66.9 °F 84% 30.01 in 10.0 mi SW 10.4 mph - N/A   Scattered Clouds
12:56 PM 73.0 °F 66.9 °F 81% 29.99 in 10.0 mi SW 10.4 mph - N/A   Clear
1:56 PM 73.9 °F 66.0 °F 76% 29.97 in 10.0 mi WSW 10.4 mph - N/A   Clear
2:56 PM 73.4 °F 66.2 °F 78% 29.96 in 10.0 mi SW 11.5 mph - N/A   Clear
3:56 PM 75.0 °F 64.0 °F 69% 29.95 in 10.0 mi SW 10.4 mph - N/A   Clear
4:56 PM 73.0 °F 66.0 °F 79% 29.95 in 7.0 mi SSW 5.8 mph - N/A   Clear
5:56 PM 73.4 °F 66.2 °F 78% 29.94 in 10.0 mi SSW 4.6 mph - N/A   Clear
6:56 PM 71.1 °F 66.9 °F 87% 29.95 in 7.0 mi WSW 8.1 mph - N/A   Clear
7:56 PM 69.8 °F 66.2 °F 88% 29.96 in 10.0 mi SW 3.5 mph - N/A   Clear
8:56 PM 68.0 °F 64.9 °F 90% 29.98 in 10.0 mi SSW 4.6 mph - N/A   Clear
9:56 PM 68.0 °F 64.9 °F 90% 29.98 in 10.0 mi SSW 4.6 mph - N/A   Clear
10:56 PM 68.0 °F 64.9 °F 90% 29.98 in 10.0 mi WSW 5.8 mph - N/A   Clear
11:56 PM 66.2 °F 64.4 °F 94% 29.97 in 10.0 mi WSW 3.5 mph - N/A   Clear